Theta_e
319 319 319 320 320 319 318 316 316 316 316 315 317 320 319 318 320 320 322 328 327 327 328 327 328 327 329 334 337 335 337 342 340 339 338 339 340 338 339 340 341 338 332 331 325
320 320 321 320 321 321 319 316 316 317 317 315 317 321 318 319 319 321 328 328 328 327 328 328 326 333 330 334 336 335 335 337 339 337 336 339 340 340 340 339 339 335 328 326 326
319 321 321 321 321 321 320 317 316 317 316 317 317 321 318 319 320 327 329 328 328 329 328 326 330 333 335 335 336 334 334 334 338 337 337 340 341 341 340 340 340 328 326 326 326
319 320 321 322 322 322 321 317 316 318 316 318 317 320 318 324 332 331 329 328 330 328 326 325 330 336 334 333 335 334 334 336 338 338 338 339 341 340 341 341 340 331 329 327 326
317 319 320 321 322 322 322 318 316 319 317 318 316 320 319 326 330 330 329 329 329 326 329 327 327 337 335 338 337 334 336 337 338 340 340 341 341 341 340 340 337 330 327 327 326
316 318 319 321 321 323 322 317 316 320 318 317 316 320 323 329 327 328 328 330 327 326 333 334 331 334 336 336 336 337 336 336 339 341 341 341 342 342 340 336 331 329 329 329 328
316 317 319 321 322 323 321 317 320 320 317 317 316 320 323 328 328 327 330 328 326 325 329 333 337 335 336 334 335 336 334 335 338 341 341 342 342 342 341 338 331 331 330 328 328
316 316 319 320 322 322 319 321 322 322 319 318 316 320 325 328 326 326 329 327 326 326 326 332 335 336 337 333 334 338 337 336 334 338 340 340 342 343 342 341 336 331 329 328 329
315 316 318 320 321 321 318 321 321 322 317 316 320 322 324 327 326 327 326 327 327 328 326 328 336 335 335 331 332 333 339 341 339 338 339 335 338 343 342 342 340 333 330 330 330
314 315 317 320 321 319 320 320 323 322 321 317 326 323 326 329 328 327 327 326 327 328 328 328 333 331 329 328 332 336 339 337 341 338 337 337 336 342 343 342 342 338 332 332 331
313 314 316 318 320 319 321 321 320 321 321 321 322 323 324 326 327 327 328 328 328 327 326 327 324 324 329 329 331 336 338 338 338 338 335 336 337 342 342 342 342 339 336 333 332
312 314 316 318 319 320 321 320 320 320 320 321 321 323 324 325 326 327 328 328 327 325 326 324 324 325 327 332 333 335 336 334 335 336 332 335 340 341 341 341 342 340 339 337 333
312 313 315 317 318 320 321 322 320 320 320 321 322 322 324 325 326 327 327 328 326 325 326 325 326 328 329 335 337 331 331 336 336 337 336 336 336 344 341 340 340 340 341 340 337
312 313 314 316 318 318 321 321 320 321 321 325 326 324 324 326 326 328 327 328 326 325 325 325 326 328 332 333 331 333 332 333 337 335 338 335 335 341 342 342 339 339 340 340 340
311 313 314 315 316 319 320 320 321 322 332 330 323 323 325 325 326 327 328 328 326 326 326 326 326 326 329 333 333 333 332 335 337 336 335 338 338 341 340 340 340 340 338 340 341
311 312 314 315 316 318 319 320 323 324 332 324 322 323 322 324 325 326 329 329 329 326 326 325 327 328 329 332 333 334 337 332 334 335 340 336 337 341 338 336 336 338 339 339 339
311 312 313 314 317 317 321 323 324 326 328 321 321 323 321 322 322 324 325 326 325 326 324 325 327 331 333 332 330 330 329 331 332 336 342 336 340 336 336 335 336 336 336 339 339
311 312 314 315 317 321 321 321 328 329 331 327 322 322 323 322 322 324 325 324 325 325 324 325 326 332 333 332 332 332 330 331 337 337 334 337 338 335 333 334 334 334 334 338 339
312 313 314 316 323 320 321 324 326 330 328 329 327 321 321 322 323 322 324 325 325 323 324 325 326 331 333 332 331 333 334 331 332 331 330 332 334 334 334 334 334 334 334 333 335
312 313 315 321 324 323 318 321 326 329 326 329 328 330 327 322 322 321 322 324 327 326 325 325 328 333 333 334 333 331 332 332 334 336 335 335 334 335 334 336 334 331 334 335 336
313 315 322 319 324 321 318 320 325 326 326 328 328 328 331 332 324 322 323 326 327 327 327 325 327 328 332 332 332 333 335 335 333 332 336 338 332 330 333 332 334 332 334 336 335
315 319 324 324 319 319 317 321 325 325 326 326 327 328 332 331 331 331 331 331 333 328 333 331 327 333 333 330 331 332 333 332 334 337 333 332 333 332 331 333 332 333 335 335 335
316 322 324 321 316 314 319 324 325 324 326 327 329 329 330 331 330 331 332 330 332 333 333 332 333 332 332 329 331 333 331 334 331 330 334 334 332 335 334 333 332 332 331 333 334
315 320 324 324 321 320 321 322 326 323 325 325 326 329 330 330 331 328 332 331 335 332 333 333 330 329 331 330 330 331 332 333 330 332 333 333 331 336 335 333 332 333 331 331 331
314 319 325 320 322 322 321 322 325 325 325 325 327 330 330 331 334 336 336 336 333 330 333 327 330 334 332 332 333 334 332 332 334 334 334 332 332 333 334 331 333 333 332 333 332
314 321 320 323 327 320 319 323 326 326 325 325 327 327 335 337 336 336 333 333 339 334 332 330 328 335 335 337 336 335 332 333 332 333 334 335 337 335 335 334 333 333 331 331 333
314 320 325 327 325 324 321 323 324 325 326 327 327 332 338 337 336 336 334 332 333 335 331 337 334 336 336 336 333 331 332 335 337 336 333 338 336 335 335 334 333 331 331 333 336
Wind_Speed
16 18 21 23 25 28 29 29 25 25 18 12 10 6 3 1 1 3 4 5 1 4 4 3 6 9 11 7 10 3 4 4 6 7 5 11 6 4 13 21 6 5 21 25 17
14 17 20 22 24 27 29 29 26 25 17 12 9 6 2 1 1 3 5 2 3 6 5 5 9 14 6 14 6 5 3 8 8 11 8 13 24 18 10 11 7 16 23 20 13
15 16 19 21 23 25 28 29 26 24 16 12 9 5 1 2 3 2 5 2 4 4 4 7 11 5 18 11 5 7 6 7 8 18 18 20 19 19 22 6 24 28 24 18 12
15 16 18 20 22 25 27 28 25 22 16 11 7 5 2 4 3 4 0 1 1 4 9 11 9 5 4 5 9 5 5 12 14 14 19 18 22 10 15 13 24 25 20 13 7
14 15 18 20 21 24 27 28 24 22 15 10 5 3 3 2 3 6 0 5 1 5 15 13 4 6 7 6 2 5 6 16 25 25 21 20 17 12 11 22 25 23 17 12 9
14 15 17 19 21 24 27 27 22 22 13 7 3 2 2 1 7 5 8 6 4 12 11 5 6 10 9 5 3 1 9 7 19 25 22 16 13 15 18 25 25 22 17 14 14
14 15 16 18 20 23 27 25 20 19 10 4 2 2 3 3 5 5 5 2 2 4 3 2 15 4 8 6 3 7 5 5 16 18 7 24 2 5 26 23 25 21 19 19 20
15 15 16 17 20 23 27 21 20 15 9 4 1 3 4 2 2 2 4 4 1 3 6 4 6 12 4 11 4 5 6 3 4 12 14 11 6 13 28 26 25 26 27 27 25
15 15 15 16 19 23 21 22 21 9 7 3 3 3 3 4 8 5 5 3 7 10 15 8 10 6 7 4 4 6 1 1 7 8 7 7 3 18 32 29 25 27 31 29 27
15 15 15 15 17 20 18 22 11 7 15 3 2 2 5 3 8 12 9 9 10 11 8 7 2 4 4 3 4 5 4 3 5 4 8 7 8 18 29 27 25 29 33 31 32
14 15 15 14 14 16 19 24 25 5 26 9 8 12 18 10 8 11 12 7 7 5 2 7 4 8 12 11 6 7 2 4 8 6 3 6 8 16 27 25 21 28 33 33 35
14 15 15 13 12 12 16 16 14 13 11 15 16 18 16 8 2 8 11 3 1 2 5 6 6 14 13 9 8 6 6 7 7 6 6 6 8 13 23 29 32 30 32 34 33
14 14 14 12 12 7 9 19 18 22 5 12 13 11 8 7 6 10 14 6 2 3 4 4 11 23 3 4 4 6 8 2 4 3 4 2 5 4 1 11 18 25 38 36 36
13 13 14 13 7 10 6 13 13 18 4 6 5 6 10 4 4 9 10 6 2 6 4 6 5 11 6 2 4 2 2 6 4 2 2 3 2 4 6 9 15 23 29 32 35
13 13 12 13 13 7 13 11 11 7 3 3 5 5 12 10 1 4 16 14 7 7 4 11 8 9 7 5 4 5 5 3 4 5 3 5 4 5 2 12 14 17 26 34 33
13 14 12 13 12 6 14 19 8 5 3 3 9 6 5 9 11 5 10 13 15 5 1 9 7 4 5 4 4 6 2 9 5 3 3 3 4 4 5 9 5 19 30 36 35
13 14 13 14 6 10 11 8 5 3 6 4 5 3 6 5 5 5 4 2 6 1 6 7 5 9 3 6 5 6 7 4 5 5 4 5 1 7 5 11 19 19 12 36 34
14 14 15 11 2 5 9 4 2 5 6 4 4 4 7 6 7 5 3 6 3 4 3 1 12 1 4 3 3 6 6 4 2 3 3 5 3 4 6 11 10 9 9 18 34
14 13 16 3 6 2 3 3 5 4 4 7 4 3 4 4 5 5 5 6 9 10 8 4 7 5 4 5 3 3 4 3 5 4 2 3 5 1 4 7 9 10 22 14 11
13 14 13 11 5 3 3 4 4 5 5 5 4 3 3 4 7 7 7 6 5 12 12 7 3 4 4 10 13 6 3 3 4 2 4 5 4 4 5 6 4 18 16 21 10
10 8 5 14 12 5 2 6 6 15 7 3 2 3 4 3 5 5 6 4 4 4 14 6 6 9 3 0 7 1 2 5 4 5 4 3 6 6 5 8 4 11 16 14 8
5 3 10 16 4 1 2 5 11 11 9 4 3 1 3 4 5 2 4 1 6 7 4 2 5 3 4 7 4 4 6 6 5 4 2 4 6 6 5 8 12 7 15 12 5
4 7 9 15 2 2 6 8 8 4 5 5 5 2 3 3 4 3 1 2 7 5 3 1 3 3 6 7 4 3 3 4 5 3 5 5 6 1 3 2 3 4 12 10 8
4 2 5 13 10 4 1 6 4 4 2 4 3 4 6 7 4 4 6 4 7 6 6 5 3 6 6 6 3 5 11 8 5 4 4 6 6 6 3 1 4 4 4 4 4
5 5 4 3 7 11 5 3 6 4 4 3 5 3 3 4 5 6 7 7 7 5 3 5 2 1 4 5 2 6 8 6 6 5 7 5 6 3 4 7 9 4 2 3 3
3 3 9 10 13 6 8 4 2 3 1 4 3 6 7 4 2 2 4 5 1 5 2 3 2 1 4 4 6 3 6 13 8 4 2 8 4 4 6 8 9 5 4 4 7
4 8 6 7 5 2 4 6 5 2 5 5 5 3 7 4 9 8 3 5 4 3 3 2 3 3 4 4 5 5 5 2 3 6 3 5 6 7 3 13 11 6 4 2 4
Wind_Direction
357 1 2 6 9 6 7 3 1 2 2 17 5 5 45 108 179 191 169 159 6 3 341 310 299 312 235 160 165 113 73 150 183 152 229 176 147 138 122 127 138 86 112 132 136
349 353 356 357 2 1 2 359 357 358 358 11 4 0 53 136 208 181 142 100 343 327 332 305 333 29 116 167 135 103 111 211 185 168 181 179 125 130 127 124 132 104 128 133 145
338 345 347 349 356 356 356 356 354 356 357 0 7 353 61 103 106 113 221 340 327 303 300 324 12 59 48 140 180 159 175 174 198 172 167 157 141 143 145 175 157 142 136 138 135
325 333 336 342 350 350 351 353 351 352 354 356 13 344 101 109 138 28 241 162 281 316 4 29 53 95 83 29 26 49 32 162 178 198 170 148 149 156 171 180 162 150 152 153 161
319 324 328 336 344 344 347 348 346 342 343 352 15 354 118 102 23 349 234 162 109 32 29 3 7 124 86 57 9 78 20 121 146 149 153 141 145 139 145 165 157 152 150 152 173
314 320 324 332 340 341 342 343 343 337 331 339 4 99 134 57 22 18 143 151 87 60 68 36 177 136 116 99 78 166 104 142 141 139 140 135 147 130 150 149 155 158 168 183 191
309 317 321 330 337 339 340 340 341 336 335 322 357 148 185 86 42 36 136 133 58 72 153 1 146 148 114 117 203 27 91 24 149 150 137 135 217 192 163 164 168 175 180 182 190
306 310 319 328 336 339 341 344 338 331 333 331 14 158 181 120 267 233 174 184 244 272 269 205 146 104 64 128 23 31 63 49 217 163 167 150 242 183 175 180 184 182 177 185 197
302 306 315 326 336 340 347 357 343 337 350 329 138 150 202 161 235 230 221 214 311 315 271 236 233 116 127 77 27 346 16 152 311 206 143 200 246 184 182 188 198 190 186 193 196
299 304 311 325 336 341 359 6 7 64 18 32 192 157 208 204 216 199 204 251 295 318 342 191 200 94 34 108 244 207 208 225 231 273 184 201 240 181 191 198 205 199 196 200 200
298 303 309 320 333 340 351 11 17 352 330 279 280 284 282 333 190 192 177 231 287 296 12 341 21 279 224 202 189 183 321 158 263 214 107 267 251 191 193 205 216 208 199 204 208
299 303 306 315 328 334 350 18 21 348 315 287 268 263 270 288 274 195 186 203 333 291 355 4 294 269 279 184 213 171 174 218 250 93 137 215 253 191 195 205 212 210 207 205 205
299 302 307 312 322 338 21 9 6 340 297 292 243 252 244 248 241 204 195 197 237 300 283 150 264 306 244 145 213 249 131 210 186 97 32 299 35 77 336 303 260 255 222 213 210
295 301 309 315 319 329 345 352 350 347 50 276 202 236 216 194 244 232 224 200 235 233 278 261 296 345 14 288 146 55 164 168 165 97 7 353 316 19 337 292 289 272 235 220 219
291 294 301 311 314 334 334 324 331 346 50 226 188 218 187 186 209 260 205 217 235 261 75 276 283 323 252 251 152 207 134 122 83 85 96 2 77 277 156 260 250 261 250 234 228
286 289 292 297 304 335 319 330 334 44 286 266 174 193 145 202 228 258 196 205 239 244 268 251 329 251 237 1 59 122 144 36 52 55 30 244 157 234 183 230 297 263 248 236 228
281 284 286 286 291 327 330 340 46 125 308 204 179 153 159 211 257 174 239 235 179 148 287 335 325 324 334 20 14 87 46 356 1 1 232 228 53 249 215 235 234 237 274 233 226
281 283 278 271 347 346 345 49 84 252 273 273 152 156 181 179 233 186 198 205 250 144 116 126 316 83 279 162 182 78 116 154 353 314 289 272 284 272 219 189 220 6 333 233 217
288 287 278 171 165 28 337 67 215 259 332 337 60 147 238 213 193 165 191 206 206 175 180 162 255 299 276 66 76 16 43 251 110 160 13 232 281 235 302 324 327 17 29 35 218
301 300 273 162 194 228 66 244 257 277 344 12 67 62 310 250 169 153 196 222 223 192 182 213 283 218 267 79 20 120 170 14 17 343 323 287 295 251 262 266 309 51 37 47 57
311 309 128 184 171 182 157 243 285 310 1 21 34 357 299 306 208 189 214 312 222 248 175 163 140 274 13 57 173 64 52 44 112 139 190 309 283 238 193 214 232 81 44 57 89
298 295 165 162 161 168 185 217 329 307 338 309 11 286 292 360 23 98 168 185 324 199 128 158 147 150 193 306 197 159 161 150 128 227 189 150 276 343 8 77 118 98 88 69 72
278 279 176 199 164 276 284 289 278 286 0 358 1 48 346 6 25 48 11 42 61 85 132 196 18 51 360 351 357 276 191 135 128 109 186 144 261 145 95 91 93 98 145 128 165
281 324 229 215 236 176 287 280 318 273 295 305 297 325 16 353 5 38 350 2 46 92 109 102 107 146 179 211 187 301 307 200 148 112 180 227 280 209 199 131 336 4 65 75 93
238 258 348 273 262 230 170 280 321 313 241 338 319 6 353 333 19 26 7 358 31 25 57 95 129 173 212 237 5 352 328 244 201 183 169 220 199 270 186 194 229 250 10 358 337
241 334 341 297 292 191 160 256 244 296 6 270 206 331 54 76 114 339 20 33 353 347 52 13 250 91 328 357 7 328 300 57 31 316 351 72 360 293 151 208 239 233 261 278 313
237 302 291 284 327 73 218 215 261 46 295 83 44 98 39 347 346 348 346 295 251 257 175 132 120 75 279 356 10 355 339 50 92 88 71 175 195 164 171 218 222 237 184 180 59